UZB76 UZTT-UZTT

Flight info

Callsign UZB76
Flight time N/A
Altitude 25000
Route UTP
Aircraft IL76/H-SDFGHIM1RTUWXY/LB1

Departure

Time 2026-04-26 08:46
Airport Tashkent International Airport (UZTT)

Arrival

Time N/A
Airport Tashkent International Airport (UZTT)
Time Latitude Longitude Altitude Speed Heading
2026-04-26 08:46 41.25773 69.27470 1704 ft 146 kts 263°
2026-04-26 08:46 41.25649 69.26159 2153 ft 139 kts 262°
2026-04-26 08:46 41.25563 69.24912 2613 ft 138 kts 269°
2026-04-26 08:46 41.25628 69.23653 3090 ft 134 kts 272°
2026-04-26 08:47 41.25674 69.22259 2792 ft 176 kts 268°
2026-04-26 08:47 41.25624 69.20769 3494 ft 143 kts 264°
2026-04-26 08:47 41.25841 69.19650 4181 ft 128 kts 298°
2026-04-26 08:47 41.26203 69.18521 4325 ft 145 kts 271°
2026-04-26 08:48 41.25867 69.17146 4259 ft 165 kts 240°
2026-04-26 08:48 41.25366 69.15887 4861 ft 143 kts 240°
2026-04-26 08:48 41.24744 69.15009 5361 ft 135 kts 208°
2026-04-26 08:48 41.23757 69.14760 5524 ft 149 kts 188°
2026-04-26 08:49 41.22767 69.14610 6040 ft 137 kts 189°
2026-04-26 08:49 41.21856 69.14492 6515 ft 130 kts 189°
2026-04-26 08:49 41.20958 69.14381 6831 ft 134 kts 184°
2026-04-26 08:49 41.20017 69.14271 7118 ft 139 kts 186°
2026-04-26 08:50 41.19070 69.14752 7203 ft 162 kts 142°
2026-04-26 08:50 41.18550 69.16140 7242 ft 179 kts 103°
2026-04-26 08:50 41.18392 69.17667 7852 ft 154 kts 95°
2026-04-26 08:50 41.18731 69.18977 8150 ft 161 kts 54°
2026-04-26 08:51 41.19941 69.21512 8379 ft 176 kts 88°
2026-04-26 08:51 41.19994 69.23313 7868 ft 212 kts 87°
2026-04-26 08:51 41.20230 69.25412 7200 ft 247 kts 81°
2026-04-26 08:52 41.20633 69.27612 7155 ft 244 kts 76°
2026-04-26 08:52 41.21150 69.29675 7491 ft 225 kts 71°
2026-04-26 08:52 41.21766 69.31559 7688 ft 224 kts 67°
2026-04-26 08:52 41.22374 69.33501 7546 ft 234 kts 71°
2026-04-26 08:53 41.22939 69.35576 7285 ft 246 kts 71°
2026-04-26 08:53 41.23347 69.37779 7066 ft 248 kts 84°
2026-04-26 08:53 41.23161 69.40086 6582 ft 256 kts 104°
2026-04-26 08:53 41.22543 69.42331 5976 ft 263 kts 112°
2026-04-26 08:54 41.22242 69.44727 5590 ft 261 kts 87°
2026-04-26 08:54 41.22894 69.46883 5541 ft 254 kts 56°
2026-04-26 08:54 41.24297 69.48334 5115 ft 260 kts 20°
2026-04-26 08:54 41.25966 69.48142 5178 ft 236 kts 334°
2026-04-26 08:55 41.27146 69.46697 5083 ft 233 kts 304°
2026-04-26 08:55 41.27838 69.44724 4318 ft 251 kts 283°
2026-04-26 08:55 41.27878 69.42554 3776 ft 225 kts 259°
2026-04-26 08:55 41.27519 69.40636 3353 ft 211 kts 253°
2026-04-26 08:56 41.27122 69.38773 2922 ft 206 kts 254°
2026-04-26 08:56 41.26889 69.36891 2459 ft 202 kts 261°
2026-04-26 08:56 41.26673 69.35211 2443 ft 175 kts 258°
2026-04-26 08:56 41.26478 69.33656 2173 ft 165 kts 259°
2026-04-26 08:57 41.26294 69.32174 1840 ft 162 kts 259°
2026-04-26 08:57 41.26135 69.30721 1603 ft 154 kts 262°
2026-04-26 08:57 41.25979 69.29343 1487 ft 147 kts 260°
2026-04-26 08:57 41.25834 69.27973 1708 ft 153 kts 256°
2026-04-26 08:58 41.25618 69.26576 1981 ft 164 kts 261°
2026-04-26 08:58 41.25464 69.24847 1790 ft 226 kts 261°
2026-04-26 08:58 41.25145 69.22690 1748 ft 227 kts 256°
2026-04-26 08:58 41.24819 69.21015 2824 ft 165 kts 253°
2026-04-26 08:59 41.24574 69.19750 3762 ft 128 kts 248°
2026-04-26 08:59 41.23960 69.18880 3973 ft 146 kts 210°
2026-04-26 08:59 41.22967 69.18293 4050 ft 162 kts 202°
2026-04-26 08:59 41.21719 69.18146 3431 ft 219 kts 178°
2026-04-26 09:00 41.20185 69.18792 3134 ft 230 kts 156°
2026-04-26 09:00 41.19043 69.19926 4112 ft 193 kts 136°
2026-04-26 09:00 41.18261 69.21249 4782 ft 181 kts 137°
2026-04-26 09:00 41.17156 69.22066 4982 ft 189 kts 162°
2026-04-26 09:01 41.15879 69.22595 5232 ft 192 kts 163°
2026-04-26 09:01 41.14750 69.23334 5805 ft 184 kts 153°
2026-04-26 09:01 41.13606 69.24345 5724 ft 208 kts 146°
2026-04-26 09:01 41.12461 69.25634 5655 ft 222 kts 139°
2026-04-26 09:02 41.11436 69.27191 5664 ft 228 kts 124°
2026-04-26 09:02 41.10996 69.29155 5955 ft 221 kts 93°
2026-04-26 09:02 41.11195 69.31127 6345 ft 212 kts 78°
2026-04-26 09:02 41.11553 69.32880 7326 ft 187 kts 72°
2026-04-26 09:03 41.12083 69.34489 7635 ft 205 kts 60°
2026-04-26 09:03 41.12665 69.36351 7665 ft 227 kts 72°
2026-04-26 09:03 41.12977 69.38239 8657 ft 196 kts 83°
2026-04-26 09:03 41.13078 69.39835 9729 ft 162 kts 90°
2026-04-26 09:04 41.13088 69.41372 10001 ft 181 kts 92°
2026-04-26 09:04 41.13101 69.43164 10051 ft 207 kts 89°
2026-04-26 09:04 41.13200 69.45061 10607 ft 201 kts 85°
2026-04-26 09:04 41.13396 69.46800 11315 ft 188 kts 84°
2026-04-26 09:05 41.13514 69.48528 11733 ft 191 kts 91°
2026-04-26 09:05 41.13438 69.50230 12299 ft 183 kts 102°
2026-04-26 09:05 41.13108 69.51815 12807 ft 178 kts 116°
2026-04-26 09:05 41.12535 69.53264 13209 ft 179 kts 116°
2026-04-26 09:06 41.12306 69.54855 13760 ft 178 kts 86°
2026-04-26 09:06 41.12872 69.56458 13748 ft 206 kts 62°
2026-04-26 09:06 41.13568 69.58015 14478 ft 184 kts 64°
2026-04-26 09:06 41.14099 69.59432 15115 ft 170 kts 65°
2026-04-26 09:07 41.14657 69.60899 15210 ft 191 kts 65°
2026-04-26 09:07 41.15272 69.62541 15431 ft 201 kts 65°
2026-04-26 09:07 41.15878 69.64149 16033 ft 188 kts 65°
2026-04-26 09:07 41.16445 69.65658 16503 ft 183 kts 66°
2026-04-26 09:08 41.17031 69.67217 16690 ft 196 kts 66°
2026-04-26 09:08 41.17650 69.68884 16958 ft 201 kts 66°
2026-04-26 09:08 41.18020 69.70628 17286 ft 197 kts 89°
2026-04-26 09:08 41.18181 69.72409 17655 ft 195 kts 87°
2026-04-26 09:09 41.18336 69.74178 18042 ft 192 kts 87°
2026-04-26 09:09 41.18492 69.75951 18316 ft 197 kts 87°
2026-04-26 09:09 41.18651 69.77860 18316 ft 217 kts 88°
2026-04-26 09:09 41.18816 69.79894 18498 ft 222 kts 87°
2026-04-26 09:10 41.18972 69.81872 18986 ft 210 kts 90°
2026-04-26 09:10 41.18966 69.83763 19363 ft 204 kts 95°
2026-04-26 09:10 41.18941 69.85703 19517 ft 213 kts 95°
2026-04-26 09:10 41.18905 69.87696 19673 ft 220 kts 95°
2026-04-26 09:11 41.18870 69.89770 20005 ft 217 kts 95°
2026-04-26 09:11 41.18835 69.91755 20323 ft 216 kts 95°
2026-04-26 09:11 41.18798 69.93802 20300 ft 231 kts 95°
2026-04-26 09:11 41.18750 69.95988 20342 ft 240 kts 95°
2026-04-26 09:12 41.18699 69.98197 20633 ft 236 kts 95°
2026-04-26 09:12 41.18657 70.00322 21012 ft 228 kts 95°
2026-04-26 09:12 41.18611 70.02451 21259 ft 229 kts 95°
2026-04-26 09:12 41.18579 70.04712 20805 ft 262 kts 93°
2026-04-26 09:13 41.18620 70.07162 20896 ft 260 kts 92°
2026-04-26 09:13 41.18569 70.09631 21064 ft 257 kts 95°
2026-04-26 09:13 41.18507 70.12059 21081 ft 262 kts 95°
2026-04-26 09:13 41.18435 70.14507 21062 ft 267 kts 95°
2026-04-26 09:14 41.18367 70.16972 21109 ft 268 kts 95°
2026-04-26 09:14 41.18301 70.19428 21234 ft 266 kts 95°
2026-04-26 09:14 41.18228 70.21850 21381 ft 264 kts 95°
2026-04-26 09:14 41.18164 70.24270 21495 ft 263 kts 95°
2026-04-26 09:15 41.18095 70.26703 21564 ft 265 kts 95°
2026-04-26 09:15 41.18018 70.29166 21460 ft 274 kts 95°
2026-04-26 09:15 41.17934 70.31775 21100 ft 285 kts 95°
2026-04-26 09:15 41.17886 70.34362 21231 ft 279 kts 93°
2026-04-26 09:16 41.17912 70.36954 21175 ft 283 kts 90°
2026-04-26 09:16 41.18013 70.39558 21120 ft 284 kts 88°
2026-04-26 09:16 41.18204 70.42127 21312 ft 276 kts 85°
2026-04-26 09:16 41.18313 70.44618 21592 ft 262 kts 92°
2026-04-26 09:17 41.18228 70.46949 22039 ft 242 kts 108°
2026-04-26 09:17 41.17588 70.48996 22035 ft 246 kts 118°
2026-04-26 09:17 41.16889 70.51086 22143 ft 248 kts 119°
2026-04-26 09:17 41.16193 70.53172 22439 ft 239 kts 119°
2026-04-26 09:18 41.15521 70.55164 22532 ft 244 kts 118°
2026-04-26 09:18 41.14822 70.57249 22589 ft 249 kts 119°
2026-04-26 09:18 41.14104 70.59356 22626 ft 254 kts 118°
2026-04-26 09:18 41.13375 70.61505 22628 ft 259 kts 119°
2026-04-26 09:19 41.12597 70.63705 22552 ft 265 kts 121°
2026-04-26 09:19 41.11705 70.65809 22538 ft 266 kts 124°
2026-04-26 09:19 41.10797 70.67976 22395 ft 273 kts 124°
2026-04-26 09:19 41.09851 70.70194 22237 ft 278 kts 124°
2026-04-26 09:20 41.08883 70.72472 21917 ft 287 kts 124°
2026-04-26 09:20 41.07907 70.74773 21608 ft 292 kts 124°
2026-04-26 09:20 41.06892 70.77109 21312 ft 293 kts 124°
2026-04-26 09:20 41.05891 70.79433 21112 ft 291 kts 124°
2026-04-26 09:21 41.04876 70.81750 20796 ft 292 kts 124°
2026-04-26 09:21 41.03862 70.84087 20469 ft 291 kts 123°
2026-04-26 09:21 41.02848 70.86354 20175 ft 287 kts 124°
2026-04-26 09:21 41.01819 70.88608 19865 ft 285 kts 124°
2026-04-26 09:22 41.00806 70.90865 19537 ft 282 kts 123°
2026-04-26 09:22 40.99821 70.92995 19256 ft 279 kts 124°
2026-04-26 09:22 40.98790 70.95171 18956 ft 278 kts 124°
2026-04-26 09:22 40.97762 70.97321 18661 ft 276 kts 125°
2026-04-26 09:23 40.96710 70.99402 18391 ft 275 kts 125°
2026-04-26 09:23 40.95655 71.01527 18055 ft 274 kts 124°
2026-04-26 09:23 40.94611 71.03603 17670 ft 273 kts 125°
2026-04-26 09:23 40.93542 71.05669 17285 ft 271 kts 125°
2026-04-26 09:24 40.92508 71.07719 16888 ft 269 kts 124°
2026-04-26 09:24 40.91463 71.09765 16507 ft 268 kts 125°
2026-04-26 09:24 40.90407 71.11780 16129 ft 267 kts 125°
2026-04-26 09:24 40.89376 71.13797 15724 ft 266 kts 124°
2026-04-26 09:25 40.88329 71.15820 15267 ft 264 kts 125°
2026-04-26 09:25 40.87292 71.17776 14822 ft 263 kts 125°
2026-04-26 09:25 40.86264 71.19763 14388 ft 261 kts 124°
2026-04-26 09:25 40.85242 71.21718 13946 ft 260 kts 125°
2026-04-26 09:26 40.84197 71.23670 13499 ft 259 kts 125°
2026-04-26 09:26 40.83184 71.25614 13074 ft 258 kts 124°
2026-04-26 09:26 40.82165 71.27550 12633 ft 257 kts 125°
2026-04-26 09:26 40.81141 71.29452 12198 ft 256 kts 125°
2026-04-26 09:27 40.80125 71.31395 11685 ft 254 kts 124°
2026-04-26 09:27 40.79125 71.33292 11149 ft 252 kts 125°
2026-04-26 09:27 40.78121 71.35156 10616 ft 250 kts 125°
2026-04-26 09:27 40.77152 71.37015 10107 ft 248 kts 124°
2026-04-26 09:28 40.76179 71.38866 9579 ft 246 kts 125°
2026-04-26 09:28 40.75185 71.40717 9044 ft 244 kts 125°
2026-04-26 09:28 40.74237 71.42539 8536 ft 242 kts 124°
2026-04-26 09:28 40.73299 71.44350 8015 ft 240 kts 124°
2026-04-26 09:29 40.72344 71.46133 7492 ft 238 kts 125°
2026-04-26 09:29 40.71412 71.47907 6986 ft 236 kts 124°
2026-04-26 09:29 40.70494 71.49685 6470 ft 235 kts 124°
2026-04-26 09:29 40.69559 71.51454 5941 ft 233 kts 125°
2026-04-26 09:30 40.68654 71.53200 5436 ft 232 kts 124°
2026-04-26 09:30 40.67770 71.54934 4930 ft 230 kts 124°
2026-04-26 09:30 40.66869 71.56655 4414 ft 228 kts 124°
2026-04-26 09:30 40.65976 71.58388 4090 ft 224 kts 124°
2026-04-26 09:31 40.65112 71.60082 4313 ft 225 kts 124°
2026-04-26 09:31 40.64213 71.61785 4281 ft 227 kts 124°
2026-04-26 09:31 40.63331 71.63506 4291 ft 227 kts 124°
2026-04-26 09:31 40.62447 71.65221 4359 ft 226 kts 125°
2026-04-26 09:32 40.61507 71.66904 4261 ft 227 kts 128°
2026-04-26 09:32 40.60547 71.68541 4255 ft 227 kts 127°
2026-04-26 09:32 40.59588 71.70176 4251 ft 227 kts 129°
2026-04-26 09:32 40.58622 71.71833 4257 ft 229 kts 128°
2026-04-26 09:33 40.57673 71.73521 4255 ft 228 kts 127°
2026-04-26 09:33 40.56564 71.74924 4236 ft 227 kts 152°
2026-04-26 09:33 40.55012 71.75040 4226 ft 224 kts 192°
2026-04-26 09:33 40.53560 71.74415 4338 ft 223 kts 196°
2026-04-26 09:34 40.52051 71.74197 4373 ft 197 kts 180°
2026-04-26 09:34 40.50780 71.74141 4450 ft 177 kts 180°
2026-04-26 09:34 40.49561 71.74228 4559 ft 179 kts 175°
2026-04-26 09:34 40.48302 71.74400 4534 ft 184 kts 173°
2026-04-26 09:35 40.47023 71.74633 4423 ft 190 kts 172°
2026-04-26 09:35 40.45683 71.74864 4219 ft 196 kts 173°
2026-04-26 09:35 40.44477 71.75026 3669 ft 157 kts 176°
2026-04-26 09:35 40.43462 71.74983 3328 ft 146 kts 183°
2026-04-26 09:36 40.42344 71.74912 3241 ft 172 kts 181°
2026-04-26 09:36 40.41165 71.74814 2930 ft 162 kts 184°
2026-04-26 09:36 40.40168 71.74772 2602 ft 138 kts 181°
2026-04-26 09:36 40.39202 71.74687 2399 ft 140 kts 182°
2026-04-26 09:37 40.38239 71.74636 2218 ft 137 kts 181°
2026-04-26 09:37 40.37309 71.74569 2053 ft 128 kts 183°
2026-04-26 09:37 40.36467 71.74510 1986 ft 106 kts 182°
2026-04-26 09:37 40.35829 71.74460 1966 ft 80 kts 178°
2026-04-26 09:38 40.35371 71.74429 1966 ft 50 kts 185°
2026-04-26 09:38 40.35057 71.74406 1966 ft 43 kts 183°
2026-04-26 09:38 40.34787 71.74387 1966 ft 35 kts 185°
2026-04-26 09:38 40.34604 71.74366 1966 ft 21 kts 192°
2026-04-26 09:39 40.34582 71.74409 1966 ft 13 kts 356°
2026-04-26 09:39 40.34721 71.74384 1966 ft 27 kts
2026-04-26 09:39 40.34958 71.74410 1966 ft 40 kts
2026-04-26 09:39 40.35263 71.74426 1966 ft 47 kts
2026-04-26 09:40 40.35609 71.74451 1966 ft 52 kts
2026-04-26 09:40 40.35957 71.74476 1966 ft 41 kts
2026-04-26 09:40 40.36209 71.74490 1966 ft 33 kts
2026-04-26 09:40 40.36421 71.74509 1966 ft 28 kts
2026-04-26 09:41 40.36599 71.74522 1966 ft 23 kts
2026-04-26 09:41 40.36742 71.74535 1966 ft 18 kts
2026-04-26 09:41 40.36854 71.74539 1966 ft 13 kts 359°
2026-04-26 09:41 40.36931 71.74545 1966 ft 8 kts
2026-04-26 09:42 40.36972 71.74552 1966 ft 3 kts 14°
2026-04-26 09:42 40.36982 71.74554 1966 ft 0 kts
2026-04-26 09:42 40.36989 71.74555 1966 ft 3 kts
2026-04-26 09:42 40.37044 71.74559 1966 ft 11 kts 357°
2026-04-26 09:43 40.37118 71.74608 1966 ft 12 kts 65°
2026-04-26 09:43 40.37118 71.74715 1966 ft 11 kts 95°
2026-04-26 09:43 40.37111 71.74818 1966 ft 11 kts 95°
2026-04-26 09:43 40.37107 71.74918 1966 ft 10 kts 83°
2026-04-26 09:44 40.37151 71.74976 1966 ft 9 kts 11°
2026-04-26 09:44 40.37214 71.74987 1966 ft 8 kts
2026-04-26 09:44 40.37273 71.74995 1966 ft 8 kts
2026-04-26 09:44 40.37329 71.75008 1966 ft 8 kts 10°
2026-04-26 09:45 40.37382 71.75021 1966 ft 7 kts 11°
2026-04-26 09:45 40.37432 71.75026 1966 ft 6 kts 346°
2026-04-26 09:45 40.37464 71.74991 1966 ft 5 kts 300°
2026-04-26 09:45 40.37483 71.74947 1966 ft 5 kts 300°
2026-04-26 09:46 40.37500 71.74907 1966 ft 4 kts 299°
2026-04-26 09:46 40.37516 71.74869 1966 ft 4 kts 299°
2026-04-26 09:46 40.37530 71.74835 1966 ft 4 kts 299°
2026-04-26 09:46 40.37545 71.74800 1966 ft 5 kts 300°
2026-04-26 09:47 40.37580 71.74782 1966 ft 6 kts 15°
2026-04-26 09:47 40.37627 71.74815 1966 ft 6 kts 63°
2026-04-26 09:47 40.37621 71.74854 1966 ft 2 kts 121°
2026-04-26 09:47 40.37617 71.74863 1966 ft 1 kts 121°
2026-04-26 09:48 40.37615 71.74866 1966 ft 0 kts 120°